Tracking 19199 objects as of 25-Jun-2018
HD Live streaming from Space Station
objects crossing your sky now

FENGYUN 1C DEB

Track FENGYUN 1C DEB now!
10-day predictions


NORAD ID: 38717
Int'l Code: 1999-025ETJ
Perigee: 829.2 km
Apogee: 935.1 km
Inclination: 99.0 °
Period: 102.5 minutes
Semi major axis: 7253 km
RCS: 0.0012 m2 (small)
Launch date: May 10, 1999
Source: People's Republic of China (PRC)
Launch site: Taiyaun Space Center, China (TSC)

Note: This is SATELLITE DEBRIS
aabbcc
Your satellite tracking list
Your tracking list is empty




NASA's NSSDC Master Catalog

Two Line Element Set (TLE):
1 38717U 99025ETJ 18175.80796288 +.00000475 +00000-0 +31245-3 0  9995
2 38717 099.0288 123.5635 0073014 066.3668 324.1742 14.05436949199983
Source of the keplerian elements: AFSPC